| time (UTC) | temp C | wind direction | speed KPH | gust KPH | rain 1hr cm | rain 24hr cm | rain mn cm | humidity % | barometer mb |
| 20260506134547 | 10 | 0 | 0.0 | 1.6 | 0.00 | 0.00 | 0.00 | 96 | 1011.5 |
| 20260506133051 | 10 | 0 | 0.0 | 0.0 | 0.00 | 0.00 | 0.00 | 96 | 1011.3 |
| 20260506131556 | 10 | 0 | 0.0 | 0.0 | 0.00 | 0.00 | 0.00 | 95 | 1011.2 |
| 20260506130053 | -17 | 0.0 | 0.0 | 0.00 | 0.00 | 0.00 | 1010.8 | ||
| 20260506124547 | -17 | 0.0 | 0.0 | 0.00 | 0.00 | 0.00 | 1010.2 | ||
| 20260506123045 | -17 | 0.0 | 0.0 | 0.00 | 0.00 | 0.00 | 1012.3 | ||
| 20260506121544 | -17 | 0.0 | 0.0 | 0.00 | 0.00 | 0.00 | 1012.0 | ||
| 20260506120044 | -17 | 0.0 | 0.0 | 0.00 | 0.00 | 0.00 | 1011.9 | ||
| 20260506114538 | -17 | 0.0 | 0.0 | 0.00 | 0.00 | 0.00 | 1010.8 | ||
| 20260506113047 | -17 | 0.0 | 0.0 | 0.00 | 0.00 | 0.00 | 1010.5 | ||
| 20260506111551 | -17 | 0.0 | 0.0 | 0.00 | 0.00 | 0.00 | 1010.5 | ||
| 20260506110049 | -17 | 0.0 | 0.0 | 0.00 | 0.00 | 0.00 | 1009.7 | ||
| 20260506104555 | -17 | 0.0 | 0.0 | 0.00 | 0.00 | 0.00 | 1009.2 | ||
| 20260506103044 | -17 | 0.0 | 0.0 | 0.00 | 0.00 | 0.00 | 1009.6 | ||
| 20260506101551 | 11 | 0 | 0.0 | 1.6 | 0.00 | 0.00 | 0.00 | 94 | 1009.9 |
| 20260506100045 | 11 | 0 | 0.0 | 1.6 | 0.00 | 0.00 | 0.00 | 94 | 1009.6 |
| 20260506094607 | 12 | 334 | 0.0 | 1.6 | 0.00 | 0.00 | 0.00 | 94 | 1009.5 |
| 20260506093044 | 12 | 0 | 0.0 | 1.6 | 0.00 | 0.00 | 0.00 | 93 | 1009.3 |
| 20260506091549 | 12 | 345 | 0.0 | 1.6 | 0.00 | 0.00 | 0.00 | 92 | 1009.4 |
| 20260506090046 | 13 | 332 | 0.0 | 3.2 | 0.00 | 0.00 | 0.00 | 91 | 1009.1 |
| 20260506084547 | 15 | 349 | 1.6 | 8.0 | 0.00 | 0.00 | 0.00 | 90 | 1008.9 |
| 20260506083046 | 18 | 39 | 0.0 | 1.6 | 0.00 | 0.00 | 0.00 | 93 | 1008.1 |
| 20260506081544 | 18 | 0 | 0.0 | 1.6 | 0.00 | 0.00 | 0.00 | 91 | 1007.8 |
| 20260506073042 | 21 | 236 | 1.6 | 6.4 | 0.00 | 0.00 | 0.00 | 78 | 1006.3 |
| 20260506071548 | 21 | 238 | 3.2 | 6.4 | 0.00 | 0.00 | 0.00 | 77 | 1006.0 |
| 20260506061551 | 21 | 232 | 1.6 | 8.0 | 0.00 | 0.00 | 0.00 | 76 | 1006.2 |
| 20260506060106 | 21 | 248 | 1.6 | 6.4 | 0.00 | 0.00 | 0.00 | 75 | 1006.7 |
| 20260506044547 | 21 | 236 | 4.8 | 9.7 | 0.00 | 0.00 | 0.00 | 74 | 1006.9 |
| 20260506043042 | 20 | 194 | 3.2 | 8.0 | 0.00 | 0.00 | 0.00 | 75 | 1007.2 |
| 20260506041550 | 20 | 253 | 3.2 | 8.0 | 0.00 | 0.00 | 0.00 | 76 | 1007.6 |
| 20260506040044 | 20 | 235 | 3.2 | 8.0 | 0.00 | 0.00 | 0.00 | 77 | 1007.5 |
| 20260506034541 | 20 | 165 | 3.2 | 6.4 | 0.00 | 0.00 | 0.00 | 77 | 1007.4 |
| 20260506033049 | 20 | 233 | 1.6 | 8.0 | 0.00 | 0.00 | 0.00 | 75 | 1008.1 |
| 20260506031548 | 20 | 234 | 1.6 | 6.4 | 0.00 | 0.00 | 0.00 | 76 | 1008.0 |
| 20260506030043 | 20 | 235 | 1.6 | 6.4 | 0.00 | 0.00 | 0.00 | 77 | 1007.9 |
| 20260506024546 | 20 | 208 | 1.6 | 6.4 | 0.00 | 0.00 | 0.00 | 78 | 1007.9 |
| 20260506023047 | 20 | 233 | 1.6 | 4.8 | 0.00 | 0.00 | 0.00 | 76 | 1007.9 |
| 20260506021541 | 19 | 212 | 1.6 | 6.4 | 0.00 | 0.00 | 0.00 | 77 | 1007.4 |
| 20260506020040 | 18 | 224 | 1.6 | 4.8 | 0.00 | 0.00 | 0.00 | 79 | 1007.5 |
| 20260506014546 | 18 | 225 | 1.6 | 4.8 | 0.00 | 0.00 | 0.00 | 83 | 1007.5 |
| 20260506013046 | 17 | 235 | 1.6 | 4.8 | 0.00 | 0.00 | 0.00 | 86 | 1007.8 |
| 20260506011544 | 16 | 0 | 0.0 | 1.6 | 0.00 | 0.00 | 0.00 | 89 | 1007.8 |
| 20260506010046 | 16 | 0 | 0.0 | 0.0 | 0.00 | 0.00 | 0.00 | 91 | 1007.9 |
| 20260506004549 | 16 | 0 | 0.0 | 0.0 | 0.00 | 0.00 | 0.00 | 91 | 1007.9 |
| 20260506003047 | 16 | 0 | 0.0 | 0.0 | 0.00 | 0.00 | 0.00 | 90 | 1007.9 |
| 20260506001546 | 16 | 0 | 0.0 | 1.6 | 0.00 | 0.00 | 0.00 | 89 | 1007.9 |
| 20260506000044 | 17 | 0 | 0.0 | 1.6 | 0.00 | 0.00 | 0.00 | 87 | 1008.0 |
| 20260505234548 | 18 | 0 | 0.0 | 1.6 | 0.00 | 0.00 | 0.00 | 83 | 1008.3 |
| 20260505233045 | 19 | 240 | 1.6 | 4.8 | 0.00 | 0.00 | 0.00 | 74 | 1007.8 |
| 20260505231557 | 19 | 232 | 1.6 | 3.2 | 0.00 | 0.00 | 0.00 | 73 | 1007.7 |
| 20260505230055 | 18 | 219 | 0.0 | 3.2 | 0.00 | 0.00 | 0.00 | 75 | 1008.0 |
| 20260505224544 | 18 | 187 | 0.0 | 1.6 | 0.00 | 0.00 | 0.00 | 77 | 1008.0 |
| 20260505223048 | 17 | 220 | 0.0 | 1.6 | 0.00 | 0.00 | 0.00 | 79 | 1008.2 |
| 20260505221548 | 17 | 195 | 0.0 | 0.0 | 0.00 | 0.00 | 0.00 | 81 | 1008.5 |
| 20260505220047 | 17 | 0 | 0.0 | 1.6 | 0.00 | 0.00 | 0.00 | 83 | 1008.6 |
| 20260505214550 | 17 | 0 | 0.0 | 1.6 | 0.00 | 0.00 | 0.00 | 81 | 1008.8 |
| 20260505213056 | 18 | 221 | 3.2 | 8.0 | 0.00 | 0.00 | 0.00 | 75 | 1008.2 |
| 20260505211547 | 20 | 240 | 3.2 | 6.4 | 0.00 | 0.00 | 0.00 | 65 | 1009.6 |
| 20260505210055 | 21 | 219 | 3.2 | 8.0 | 0.00 | 0.00 | 0.00 | 60 | 1009.1 |
| 20260505204554 | 21 | 251 | 1.6 | 9.7 | 0.00 | 0.00 | 0.00 | 59 | 1009.1 |
| 20260505203045 | 22 | 237 | 3.2 | 9.7 | 0.00 | 0.00 | 0.00 | 56 | 1009.0 |
| 20260505201547 | 22 | 228 | 3.2 | 9.7 | 0.00 | 0.00 | 0.00 | 56 | 1009.1 |
| 20260505200044 | 22 | 236 | 3.2 | 9.7 | 0.00 | 0.00 | 0.00 | 55 | 1009.0 |
| 20260505194546 | 22 | 226 | 3.2 | 14.5 | 0.00 | 0.00 | 0.00 | 57 | 1009.4 |
| 20260505193044 | 22 | 187 | 3.2 | 8.0 | 0.00 | 0.00 | 0.00 | 60 | 1009.3 |
| 20260505191607 | 22 | 238 | 4.8 | 9.7 | 0.00 | 0.00 | 0.00 | 58 | 1009.6 |
| 20260505190050 | 21 | 214 | 4.8 | 9.7 | 0.00 | 0.00 | 0.00 | 61 | 1010.0 |
| 20260505184543 | 21 | 249 | 3.2 | 12.9 | 0.00 | 0.00 | 0.00 | 63 | 1009.9 |
| 20260505183049 | 20 | 259 | 1.6 | 4.8 | 0.00 | 0.00 | 0.00 | 67 | 1010.6 |
| 20260505181548 | 20 | 151 | 1.6 | 6.4 | 0.00 | 0.00 | 0.00 | 67 | 1010.3 |
| 20260505180100 | 19 | 167 | 0.0 | 3.2 | 0.00 | 0.00 | 0.00 | 68 | 1010.3 |
| 20260505174552 | 19 | 222 | 1.6 | 6.4 | 0.00 | 0.00 | 0.00 | 66 | 1010.0 |
| 20260505173046 | 19 | 213 | 1.6 | 4.8 | 0.00 | 0.00 | 0.00 | 67 | 1010.2 |
| 20260505171550 | 18 | 231 | 1.6 | 4.8 | 0.00 | 0.00 | 0.00 | 70 | 1010.7 |
| 20260505170046 | 18 | 0 | 0.0 | 0.0 | 0.00 | 0.00 | 0.00 | 73 | 1010.6 |
| 20260505164543 | 18 | 0 | 0.0 | 0.0 | 0.00 | 0.00 | 0.00 | 74 | 1011.7 |
| 20260505163042 | 18 | 0 | 0.0 | 0.0 | 0.00 | 0.00 | 0.00 | 73 | 1012.1 |
| 20260505161550 | 18 | 0 | 0.0 | 0.0 | 0.00 | 0.00 | 0.00 | 72 | 1012.4 |
| 20260505153045 | 18 | 217 | 0.0 | 3.2 | 0.00 | 0.00 | 0.00 | 71 | 1012.8 |
| 20260505151546 | 18 | 243 | 1.6 | 6.4 | 0.00 | 0.00 | 0.00 | 72 | 1012.6 |